Location: Newark
(37.8333°N, 119.5000°W)
Time: 16:04:29
(UTC+00:00)

Tiros 1 despin weight - Pass Details

Date: 19 August 2019
Orbit: 594 x 642 km, 48.2° (Epoch: 21 September)

Event Time Altitude Azimuth Distance (km) Brightness Sun altitude
Rises 10:55:39 0° 286° (WNW) 2,862 - -25.0°
Reaches altitude 10° 10:58:22 10° 302° (WNW) 1,968 - -24.6°
Exits shadow 10:59:53 17° 318° (NW) 1,573 ? -24.4°
Maximum altitude 11:01:57 23° 354° (N) 1,338 ? -24.1°
Drops below altitude 10° 11:05:34 10° 47° (NE) 1,994 ? -23.6°
Sets 11:08:20 0° 62° (ENE) 2,910 ? -23.1°
